This is the latest recevied weather packets stored in our database for station/object K4AXV-13. If no packets are shown the sender has not sent any weather packets the latest 10 day(s).
| Time | Temp. | Humidity | Pressure | Rain* | Wind** | Luminosity | Snow |
|---|---|---|---|---|---|---|---|
| 1777685233 | 17.22° C | - | - | 0 mm | 0.45 m/s, 66° | - | - |
| 1777684934 | 17.22° C | - | - | 0 mm | 0.45 m/s, 63° | - | - |
| 1777684632 | 17.22° C | - | - | 0 mm | 0.89 m/s, 72° | - | - |
| 1777684032 | 17.22° C | - | - | 0 mm | 0.89 m/s, 65° | - | - |
| 1777683733 | 17.22° C | - | - | 0 mm | 0.45 m/s, 62° | - | - |
| 1777683430 | 17.22° C | - | - | 0 mm | 0 m/s | - | - |
| 1777683132 | 17.22° C | - | - | 0 mm | 0.89 m/s, 69° | - | - |
| 1777682830 | 17.22° C | - | - | 0 mm | 0.45 m/s, 69° | - | - |
| 1777682531 | 17.22° C | - | - | 0 mm | 0.89 m/s, 70° | - | - |
| 1777681931 | 17.22° C | - | - | 0 mm | 0.89 m/s, 65° | - | - |
| 1777681629 | 17.78° C | - | - | 0 mm | 0.89 m/s, 66° | - | - |
| 1777681331 | 17.22° C | - | - | 0 mm | 1.34 m/s, 84° | - | - |
| 1777681029 | 17.78° C | - | - | 0 mm | 0.89 m/s, 115° | - | - |
| 1777680429 | 17.78° C | - | - | 0 mm | 1.34 m/s, 86° | - | - |
| 1777679528 | 17.78° C | - | - | 0 mm | 1.34 m/s, 96° | - | - |
| 1777679226 | 17.78° C | - | - | 0 mm | 1.79 m/s, 100° | - | - |
| 1777678928 | 17.78° C | - | - | 0 mm | 1.79 m/s, 96° | - | - |
| 1777678327 | 17.78° C | - | - | 0 mm | 1.79 m/s, 101° | - | - |
| 1777677727 | 17.78° C | - | - | 0 mm | 1.34 m/s, 108° | - | - |
| 1777677425 | 17.78° C | - | - | 0 mm | 1.79 m/s, 103° | - | - |
| 1777676825 | 17.78° C | - | - | 0 mm | 1.79 m/s, 98° | - | - |
| 1777676526 | 17.78° C | - | - | 0 mm | 1.79 m/s, 128° | - | - |
| 1777676225 | 17.78° C | - | - | 0 mm | 1.34 m/s, 72° | - | - |
| 1777675926 | 17.78° C | - | - | 0 mm | 1.34 m/s, 101° | - | - |
| 1777675624 | 17.78° C | - | - | 0 mm | 1.79 m/s, 97° | - | - |
* Rain latest hour (hover to see other rain measurements)
** Current wind speed in m/s (hover to see current wind gust speed)